Simultaneous Nadir Overpasses (SNOs) Predictions

Prediction of SNOs between GOES-14 and NOAA-20 Satellite Orbit:

Table of predicted SNOs for the next 14.0 days since TLE Epoch: 6/5/2020
Index Date Time (GOES-14) GOES-14 Lat,Lon NOAA-20 Lat,Lon Distance(km) Time Diff (sec)
1 06/06/2020 20:27:25 0.02,-104.32 -0.35,-105.88 178.48 80
2 06/07/2020 20:11:21 0.01,-104.32 0.69,-101.36 338.38 80
3 06/09/2020 08:30:27 -0.04,-104.16 0.54,-106.62 280.10 80
4 06/10/2020 08:14:23 -0.02,-104.17 -0.51,-102.09 237.48 80
5 06/11/2020 20:33:39 0.05,-104.35 -0.65,-107.40 348.61 80
6 06/12/2020 20:17:35 0.04,-104.35 0.39,-102.88 168.77 80
7 06/14/2020 08:36:41 -0.07,-104.19 0.84,-108.13 450.12 80
8 06/15/2020 08:20:36 -0.06,-104.20 -0.20,-103.61 67.71 80
9 06/17/2020 20:23:48 0.08,-104.39 0.10,-104.40 2.67 80




NCC Satellite Simultaneous Nadir Overpasses (SNOs) Prediction Service
